This demonstration page uses our WeatherBlox Daily Observations layout. Learn more.

Hourly Observations for March 18, 2020

Temp ( °F °C ) Dew Point ( °F °C ) Humidity (%) Winds ( mph kmh ) Pressure ( in mb ) Visibility ( mi km ) Precip ( " mm )
12:15 am 00:15 Partly Cloudy 48 9 39 4 71 71 N 8 13 30.34 1027 10 16.0934 0 0
12:35 am 00:35 Clear 48 9 39 4 71 71 N 7 11 30.34 1027 10 16.0934 0 0
12:55 am 00:55 Clear 48 9 37 3 66 66 N 8 13 30.34 1027 10 16.0934 0 0
1:15 am 01:15 Clear 46 8 37 3 71 71 N 9 15 30.36 1028 10 16.0934 0 0
1:35 am 01:35 Clear 46 8 37 3 71 71 N 8 13 30.36 1028 10 16.0934 0 0
1:55 am 01:55 Clear 46 8 37 3 71 71 N 10 17 30.37 1028 10 16.0934 0 0
2:15 am 02:15 Clear 46 8 37 3 71 71 NNE 6 9 30.38 1029 10 16.0934 0 0
2:35 am 02:35 Clear 46 8 36 2 66 66 N 9 15 30.38 1029 10 16.0934 0 0
2:55 am 02:55 Clear 45 7 37 3 76 76 N 8 13 30.39 1029 10 16.0934 0 0
3:15 am 03:15 Clear 45 7 36 2 71 71 N 10 17 30.39 1029 10 16.0934 0 0
3:35 am 03:35 Clear 45 7 36 2 71 71 N 9 15 30.39 1029 10 16.0934 0 0
3:55 am 03:55 Clear 45 7 36 2 71 71 N 7 11 30.4 1029 10 16.0934 0 0
4:15 am 04:15 Clear 43 6 36 2 76 76 N 6 9 30.4 1030 10 16.0934 0 0
4:35 am 04:35 Partly Cloudy 43 6 36 2 76 76 N 7 11 30.41 1030 10 16.0934 0 0
4:55 am 04:55 Partly Cloudy 41 5 34 1 76 76 N 6 9 30.43 1031 10 16.0934 0 0
5:15 am 05:15 Clear 43 6 34 1 71 71 N 5 7 30.43 1031 10 16.0934 0 0
5:35 am 05:35 Clear 43 6 34 1 71 71 NE 5 7 30.43 1031 10 16.0934 0 0
5:55 am 05:55 Clear 41 5 34 1 76 76 NNE 5 7 30.44 1031 10 16.0934 0 0
6:15 am 06:15 Clear 41 5 34 1 76 76 NNE 5 7 30.45 1031 10 16.0934 0 0
6:35 am 06:35 Clear 41 5 34 1 76 76 NE 5 7 30.45 1031 10 16.0934 0 0
6:55 am 06:55 Clear 41 5 34 1 76 76 NE 3 6 30.46 1032 10 16.0934 0 0
7:15 am 07:15 Clear 41 5 34 1 76 76 NNE 3 6 30.46 1032 10 16.0934 0 0
7:35 am 07:35 Sunny 39 4 34 1 81 81 NNE 3 6 30.48 1032 10 16.0934 0 0
7:55 am 07:55 Sunny 37 3 34 1 87 87 NNE 3 6 30.5 1033 10 16.0934 0 0
8:15 am 08:15 Sunny 39 4 34 1 81 81 Calm 30.5 1033 10 16.0934 0 0
8:35 am 08:35 Sunny 41 5 34 1 76 76 ENE 3 6 30.49 1033 10 16.0934 0 0
8:55 am 08:55 Sunny 43 6 34 1 71 71 ENE 5 7 30.5 1033 10 16.0934 0 0
9:15 am 09:15 Sunny 43 6 34 1 71 71 E 8 13 30.51 1033 10 16.0934 0 0
9:35 am 09:35 Sunny 45 7 32 0 61 61 NE 9 15 30.52 1034 10 16.0934 0 0
9:55 am 09:55 Sunny 46 8 32 0 57 57 ENE 5 7 30.52 1034 10 16.0934 0 0
10:35 am 10:35 Partly Cloudy 46 8 32 0 57 57 E 8 13 30.52 1034 10 16.0934 0 0
10:55 am 10:55 Mostly Cloudy 46 8 32 0 57 57 SE 5 7 30.52 1034 10 16.0934 0 0
1:15 pm 13:15 Cloudy 52 11 32 0 47 47 SSE 7 11 30.49 1033 10 16.0934 0 0
1:35 pm 13:35 Cloudy 52 11 32 0 47 47 S 9 15 30.48 1032 10 16.0934 0 0
2:15 pm 14:15 Cloudy 54 12 34 1 47 47 S 6 9 30.46 1032 10 16.0934 0 0
2:35 pm 14:35 Cloudy 54 12 34 1 47 47 SSE 8 13 30.44 1031 10 16.0934 0 0
2:55 pm 14:55 Cloudy 54 12 34 1 47 47 SE 6 9 30.42 1030 10 16.0934 0 0
3:15 pm 15:15 Cloudy 55 13 34 1 44 44 S 12 19 30.41 1030 10 16.0934 0 0
3:35 pm 15:35 Cloudy 54 12 36 2 51 51 S 10 17 30.4 1030 10 16.0934 0 0
3:55 pm 15:55 Cloudy 55 13 36 2 47 47 S 9 15 30.4 1030 10 16.0934 0 0
4:15 pm 16:15 Cloudy 55 13 36 2 47 47 S 12 19 30.39 1029 10 16.0934 0 0
4:35 pm 16:35 Cloudy 55 13 36 2 47 47 S 10 17 30.38 1029 10 16.0934 0 0
4:55 pm 16:55 Cloudy 55 13 36 2 47 47 SSE 13 20 30.38 1029 10 16.0934 0 0
5:15 pm 17:15 Cloudy 55 13 36 2 47 47 SE 8 13 30.37 1028 10 16.0934 0 0
5:35 pm 17:35 Mostly Cloudy 55 13 37 3 51 51 S 12 19 30.36 1028 10 16.0934 0 0
6:15 pm 18:15 Cloudy 55 13 36 2 47 47 SSE 9 15 30.36 1028 10 16.0934 0 0
6:35 pm 18:35 Cloudy 54 12 36 2 51 51 SSE 10 17 30.35 1028 10 16.0934 0 0
6:55 pm 18:55 Cloudy 54 12 37 3 54 54 S 7 11 30.37 1029 10 16.0934 0 0
7:15 pm 19:15 Cloudy 54 12 37 3 54 54 S 8 13 30.38 1029 10 16.0934 0 0
7:35 pm 19:35 Cloudy 54 12 41 5 63 63 SSE 9 15 30.37 1029 10 16.0934 0 0
7:55 pm 19:55 Cloudy 52 11 41 5 67 67 S 8 13 30.38 1029 10 16.0934 0 0
8:15 pm 20:15 Cloudy 52 11 43 6 72 72 SSE 10 17 30.37 1029 10 16.0934 0 0
8:35 pm 20:35 Cloudy 50 10 45 7 82 82 SSE 7 11 30.38 1029 10 16.0934 0.01 0.254
8:55 pm 20:55 Cloudy 50 10 45 7 82 82 SSE 8 13 30.38 1029 10 16.0934 0.01 0.254
9:15 pm 21:15 Cloudy 50 10 45 7 82 82 S 8 13 30.37 1028 10 16.0934 0 0
9:35 pm 21:35 Cloudy 50 10 43 6 76 76 SSE 12 19 30.34 1027 10 16.0934 0 0
9:55 pm 21:55 Cloudy 50 10 45 7 82 82 S 9 15 30.34 1027 10 16.0934 0 0
10:15 pm 22:15 Cloudy 50 10 43 6 76 76 S 14 22 30.34 1027 10 16.0934 0 0
10:35 pm 22:35 Cloudy 50 10 43 6 76 76 S 13 20 30.36 1028 10 16.0934 0 0
10:55 pm 22:55 Cloudy 50 10 43 6 76 76 S 12 19 30.34 1027 10 16.0934 0 0
11:15 pm 23:15 Cloudy 48 9 45 7 87 87 SSE 9 15 30.32 1027 7 11.26538 0.02 0.508
11:35 pm 23:35 Cloudy 48 9 45 7 87 87 S 9 15 30.31 1026 10 16.0934 0.05 1.27
11:55 pm 23:55 Cloudy 46 8 45 7 93 93 S 13 20 30.3 1026 10 16.0934 0.06 1.524

Powered by AerisWeather